Track SBIRS GEO 4 (USA 282) now! SBIRS GEO 4 (USA 282) is classified as:
1 43162U 18009A 24289.58591902 .00000123 00000-0 00000-0 0 9994 2 43162 2.2404 340.7104 0002086 229.5569 225.8863 1.00271823 24737